Home > Time Zones > World Clock > Weather > Germany > Ulm > Past weeks

Flag for Germany Weather past 2 weeks in Ulm, Baden-Württemberg, Germany

Now
70 °F

Broken clouds.


Feels Like: 70 °F
Forecast: 57 / 74 °F
Wind: 6 mph from East

Location: Laupheim Airport

Current Time: Jul 22, 2014 at 6:21:58 PM

Latest Report: Jul 22, 2014 at 5:20 PM


Visibility: N/A

Pressure: 29.98 "Hg

Humidity: 83%

Dew point: 64 °F

Location of UlmLocation

Historic Weather in Ulm — Graph

°F

Ulm temperature yesterday

Maximum temperature yesterday: 64 °F (at 12:20 AM)
Minimum temperature yesterday: 59 °F (at 5:20 AM)
Average temperature yesterday: 62 °F

Past Weeks' High & Low Weather Summary

 TemperatureHumidityPressure
High90 °F (Jul 19, 5:20 PM)100% (Jul 8, 2:20 AM)30.21 "Hg (Jul 8, 2:20 AM)
Low50 °F (Jul 10, 1:20 AM)29% (Jul 19, 5:20 PM)29.80 "Hg (Jul 10, 2:20 AM)
Average65 °F76%29.98 "Hg
* Reported Jul 7 4:20 PM — Jul 22 4:20 PM, Ulm, Weather by CustomWeather, © 2014

Note: Actual official high and low records may vary slightly from our data, if they occured in-between our weather recording intervals... More about our weather records

Advertising

Ulm weather history for previous 24 hours

 ConditionsComfort  
Time TempWeatherWind HumidityBarometerVisibility
4:20 PM
Jul 22
68 °FLight rain. Broken clouds.7 mph88%29.98 "Hg5 mi
3:20 PM64 °FRain showers. Fog.5 mph94%29.98 "Hg3 mi
2:47 PM64 °FLots of rain. Fog.10 mph94%29.98 "Hg2 mi
2:20 PM66 °FPartly sunny.10 mph88%29.95 "Hg5 mi
1:20 PM68 °FPartly sunny.12 mph88%29.95 "Hg6 mi
12:20 PM66 °FPartly sunny.9 mph94%29.92 "Hg5 mi
11:20 AM66 °FLight rain. Partly sunny.9 mph94%29.92 "Hg5 mi
11:01 AM64 °FRain. Fog.8 mph100%29.92 "Hg2 mi
10:20 AM64 °FRain. Fog.6 mph100%29.92 "Hg1 mi
9:20 AM64 °FDrizzle. Partly sunny.6 mph94%29.89 "HgN/A
8:58 AM64 °FDrizzle. Partly sunny.5 mph94%29.89 "HgN/A
8:20 AM63 °FDrizzle. Partly sunny.5 mph100%29.89 "HgN/A
7:51 AM63 °FLight rain. Partly sunny.3 mph100%29.89 "HgN/A
7:20 AM63 °FLight rain. Partly sunny.3 mph100%29.86 "HgN/A
7:00 AM63 °FLight rain. Partly sunny.3 mph94%29.86 "HgN/A
6:20 AM63 °FLight rain. Passing clouds.3 mph100%29.86 "HgN/A
5:20 AM63 °FLight rain. Overcast.2 mph100%29.86 "Hg5 mi
4:20 AM61 °FLight rain. Fog.3 mph100%29.86 "Hg3 mi
3:20 AM61 °FRain. Fog.8 mph100%29.86 "Hg2 mi
2:20 AM61 °FRain. Fog.8 mph100%29.89 "Hg2 mi
1:20 AM61 °FRain. Fog.10 mph100%29.89 "Hg2 mi
12:20 AM61 °FRain. Fog.6 mph100%29.92 "Hg2 mi
11:20 PM
Jul 21
61 °FRain. Fog.7 mph100%29.92 "Hg3 mi
10:20 PM61 °FRain. Fog.5 mph94%29.95 "Hg2 mi
9:20 PM61 °FRain. Fog.7 mph94%29.95 "Hg2 mi
8:20 PM61 °FRain. Fog.7 mph94%29.95 "Hg3 mi
7:20 PM61 °FRain. More clouds than sun.8 mph100%29.95 "Hg4 mi
6:20 PM61 °FRain. More clouds than sun.9 mph100%29.92 "Hg6 mi
Weather by CustomWeather, © 2014

See weather overviewHow to use our weather pages